GFSGBSN_con_3kmhel_021.txt.gz
Helicity
60 59 58 63 60 55 46 25 22 22 22 20 20 14 21 29 36 37 42 52 56 59 65 67 27 28 -33 -11 41 14 71 62 36 63 103 52 14 -20 6 -17 39 67 80 85 63 201 236
58 54 54 61 53 45 33 28 24 34 28 18 17 10 21 27 4 12 48 41 53 59 74 70 29 61 -26 97 26 2 83 67 83 37 85 50 0 16 20 74 51 69 66 8 21 50 62
56 54 48 57 49 31 27 19 34 38 21 18 15 -2 30 15 0 50 65 49 54 72 86 64 61 48 6 127 41 54 95 44 61 57 62 60 40 70 52 97 31 30 13 -6 -9 -31 -11
48 47 39 57 41 33 27 24 40 34 31 12 -5 19 25 25 54 56 60 74 92 89 76 82 58 11 37 39 42 88 110 63 64 64 57 62 61 101 40 13 31 7 9 61 3 32 -3
47 49 44 55 43 36 30 39 49 45 35 38 41 41 42 50 65 58 68 94 98 92 73 66 37 0 92 13 36 45 55 120 9 29 15 73 50 67 28 16 -5 -1 23 -10 -13 71 43
42 41 50 58 38 40 40 58 54 44 46 63 71 65 71 47 -2 -1 72 81 66 86 54 55 57 33 56 48 18 35 57 63 68 58 59 49 26 -6 10 -4 63 17 15 47 70 17 20
42 39 51 51 43 41 61 69 62 77 95 79 89 94 108 87 56 51 62 76 86 70 16 26 60 91 -13 0 5 15 25 61 90 50 94 43 28 27 44 53 59 50 60 48 79 99 56
38 38 56 53 47 49 79 80 72 65 77 75 73 84 53 62 58 39 43 117 102 48 95 212 108 52 41 64 31 32 28 69 64 119 86 22 37 39 4 10 44 45 79 82 27 49 38
42 46 61 55 52 61 89 85 71 75 66 76 95 88 62 45 27 14 59 118 54 -27 60 62 22 16 49 93 49 45 71 82 103 87 43 36 25 29 61 66 102 125 62 101 78 41 11
45 59 55 59 63 71 95 97 78 87 74 100 115 91 53 27 61 32 137 127 12 59 53 42 58 37 69 27 42 59 45 79 57 39 60 16 34 49 54 58 78 96 77 47 47 40 29
43 62 50 65 76 83 100 101 92 92 94 96 93 82 48 45 79 54 67 52 46 8 63 47 42 6 27 55 1 40 31 68 99 68 80 16 35 84 91 30 35 35 30 23 31 38 50
56 53 60 72 81 98 104 106 85 80 90 94 95 63 33 65 79 56 34 60 9 44 56 37 14 25 16 28 27 1 32 84 70 66 102 48 37 34 42 31 38 27 62 68 81 91 73
57 61 63 77 82 107 113 109 87 88 93 102 76 35 52 83 43 39 64 38 72 60 20 26 26 -17 30 23 11 -2 2 68 89 54 25 20 26 -6 25 15 29 31 53 57 64 56 51
65 71 64 76 86 107 117 110 100 98 92 88 53 48 90 42 53 50 60 87 123 30 35 -11 16 31 30 48 65 15 29 51 113 72 -29 47 57 18 15 41 6 13 18 38 46 54 18
77 71 68 76 88 100 114 118 106 104 92 85 54 77 62 44 47 58 74 91 123 111 63 35 12 52 63 34 39 53 110 22 53 123 80 83 20 25 19 22 30 7 31 15 50 18 45
77 70 70 71 84 81 112 117 120 114 89 64 72 51 49 31 35 72 61 100 75 80 75 34 14 1 14 -10 4 26 29 45 40 117 87 99 27 24 15 14 -2 23 22 41 38 60 39
85 72 70 66 85 73 114 116 131 114 75 57 86 69 69 44 64 78 50 76 36 70 100 37 3 27 14 30 0 0 32 54 88 54 50 94 20 -3 -11 -7 12 22 56 55 64 116 109
89 73 70 66 80 75 114 117 124 113 84 83 94 108 80 70 88 65 51 52 32 24 65 71 97 79 71 88 87 66 51 44 75 88 26 44 3 6 3 -8 2 47 86 103 125 87 137
82 72 69 69 76 82 113 117 130 103 85 94 88 94 66 87 80 55 105 77 38 10 40 84 128 128 130 79 73 59 61 64 82 47 -10 8 5 22 11 7 1 19 126 147 223 237 175
78 76 67 67 74 81 111 118 117 86 47 48 140 117 125 89 72 69 60 55 93 90 95 123 50 76 91 91 68 55 47 41 52 38 43 40 29 53 60 69 73 71 67 87 206 260 232
70 70 65 63 76 82 107 119 113 84 38 32 117 77 52 97 61 137 50 54 73 78 76 81 52 24 58 54 48 56 55 12 17 18 39 54 66 63 62 52 60 70 62 61 85 118 195
73 70 67 66 76 84 105 125 114 87 55 61 189 114 81 91 95 102 76 54 69 10 58 37 38 16 88 106 96 21 24 -16 3 10 33 65 55 71 79 125 110 71 36 51 70 127 173
75 71 74 69 77 85 105 137 119 116 82 105 69 72 80 161 100 105 105 98 69 144 70 70 72 216 289 179 213 257 226 150 84 61 72 77 90 95 74 96 91 117 85 92 88 140 128
76 75 74 75 80 87 91 132 152 138 112 91 110 106 101 146 105 102 60 45 128 134 104 222 205 216 173 172 164 201 254 240 137 163 97 105 126 126 106 120 140 93 102 171 180 191 162
77 73 79 80 83 90 90 118 157 160 165 86 89 87 63 104 96 111 76 127 240 300 251 315 248 130 119 160 130 125 135 142 139 185 164 118 154 162 153 143 114 138 144 145 155 126 199
79 76 77 77 84 98 103 121 148 153 170 76 89 86 66 77 107 124 95 137 218 250 241 236 217 218 149 136 132 106 90 87 95 116 207 193 170 173 178 176 128 136 216 153 152 183 244
87 84 78 79 85 100 108 122 142 152 162 83 88 90 75 101 121 144 160 186 191 226 185 144 144 170 158 147 131 112 111 122 106 105 122 198 180 175 210 182 112 78 176 146 228 148 251
97 93 85 84 86 93 105 122 142 151 154 96 85 99 74 85 112 167 219 232 173 191 140 94 190 154 163 153 123 106 116 110 153 138 115 143 168 152 193 176 112 81 189 241 177 245 278
105 97 93 93 94 95 104 123 147 158 166 114 100 103 94 77 64 94 140 211 213 187 130 112 87 90 111 134 132 123 137 137 155 157 160 195 156 146 188 143 101 131 166 258 294 298 309

GFSGBSN_con_3kmhel_024.txt.gz
Helicity
85 69 63 52 44 56 44 45 51 26 36 22 11 23 18 13 20 32 35 43 47 58 54 48 76 67 3 42 119 64 76 42 37 40 81 80 42 15 56 -3 33 89 50 88 106 121 69
79 66 52 52 44 44 38 43 40 23 28 16 16 6 9 10 32 42 40 30 53 68 54 76 73 70 -7 97 38 9 85 66 78 32 101 95 58 56 62 18 15 38 45 59 82 137 120
67 59 46 43 49 40 34 47 20 20 17 16 8 8 3 -13 25 12 -2 31 63 71 60 85 72 -0 18 139 51 89 54 57 21 43 93 7 19 25 25 94 16 1 21 40 10 9 37
64 41 39 46 54 39 26 34 22 16 20 12 8 8 5 -8 5 -7 45 78 85 69 67 79 52 -56 67 52 67 106 26 58 54 -7 27 34 30 74 88 67 53 36 78 -10 -4 -21 8
50 35 44 51 44 39 25 31 26 21 18 9 14 -13 -17 24 26 63 65 87 84 73 59 46 37 -23 73 92 66 87 59 56 62 29 48 28 29 84 91 39 31 6 71 52 26 21 5
33 31 43 42 41 38 29 32 30 31 18 10 -10 -22 42 52 54 54 44 63 49 73 63 75 60 25 57 85 54 75 74 58 70 48 54 100 54 50 41 32 3 41 65 32 85 -9 -3
30 35 39 37 27 34 32 37 38 46 35 45 51 64 51 33 41 32 12 64 84 65 45 48 28 67 71 26 33 36 60 61 64 47 70 66 36 51 59 30 13 1 26 86 114 46 14
35 36 39 31 30 29 42 44 55 63 61 49 84 79 85 55 1 20 49 120 104 93 48 46 81 89 124 44 36 53 24 43 41 65 49 55 66 32 53 27 32 50 61 99 86 91 42
37 32 32 30 32 40 49 61 67 75 64 66 70 61 79 9 6 32 77 141 105 38 94 75 48 61 61 19 57 68 48 30 85 71 47 38 32 47 64 93 74 128 110 84 48 55 39
38 31 30 36 45 59 62 80 82 78 69 93 66 44 23 10 93 63 111 127 94 23 51 72 68 53 41 30 70 68 50 70 120 91 58 48 67 54 73 63 55 52 69 75 80 58 48
52 36 43 48 51 71 79 81 99 78 83 88 79 97 72 94 85 74 95 106 48 44 91 69 63 64 47 34 39 38 62 85 115 69 61 43 44 81 68 36 37 20 51 43 49 65 68
60 53 53 57 66 79 85 89 107 88 95 89 106 90 45 96 77 89 73 69 31 59 74 51 31 24 32 57 60 82 78 92 73 98 110 49 9 30 25 30 57 56 69 85 95 101 118
77 52 63 60 72 80 87 100 104 106 100 110 120 64 69 83 80 49 50 52 63 77 41 34 30 7 31 33 44 60 92 113 90 83 59 74 55 31 47 52 49 62 46 52 77 70 82
73 61 72 62 73 82 89 106 113 126 106 113 105 52 138 90 55 26 30 44 95 62 48 49 27 18 33 54 89 78 74 87 111 80 70 58 57 43 51 26 12 16 22 39 40 44 24
83 73 73 64 71 86 93 111 130 127 101 85 63 115 111 79 47 30 25 92 140 99 41 16 70 42 51 50 62 85 90 62 58 61 51 42 31 18 16 36 13 9 16 16 32 20 65
92 77 71 60 75 91 105 119 135 129 96 63 97 106 103 57 33 42 61 149 123 84 67 51 63 47 43 32 72 65 55 61 55 83 53 41 42 27 43 50 57 14 5 1 -2 35 86
95 80 66 64 78 95 118 120 139 133 88 67 115 102 107 69 48 61 40 138 117 68 62 28 28 8 26 -9 7 63 50 62 84 83 79 55 32 55 40 14 -21 -20 -9 14 40 56 80
100 76 72 65 83 98 123 120 149 138 97 95 120 107 125 91 88 62 41 97 73 53 72 83 50 64 52 46 60 77 60 49 80 53 67 79 35 13 -12 -30 -12 20 39 44 62 58 104
92 83 74 72 92 106 124 135 166 131 108 112 115 124 128 76 60 80 117 77 39 42 59 79 83 81 131 83 62 71 62 59 74 65 65 92 16 38 2 10 20 42 40 83 121 104 106
93 82 69 81 94 115 127 144 159 118 107 122 146 149 150 99 84 57 102 87 50 67 89 90 97 125 128 113 86 40 57 68 79 62 66 71 35 11 30 31 45 66 95 107 135 148 143
92 77 72 88 95 116 143 156 140 119 90 132 177 153 81 97 93 103 83 30 48 63 78 69 70 61 62 77 74 52 64 75 79 71 69 59 34 69 89 84 78 82 84 80 102 116 157
79 78 81 89 95 127 158 151 133 109 81 107 179 141 124 99 65 100 77 47 38 64 62 65 47 68 79 73 39 42 64 58 45 63 75 84 54 94 88 102 113 77 49 69 87 97 145
87 89 88 92 101 128 156 145 133 109 102 54 149 109 90 157 105 131 95 39 36 88 90 89 82 158 196 73 79 117 84 77 43 51 69 74 89 105 81 119 113 87 103 106 126 148 144
103 90 90 93 101 127 147 142 142 130 103 54 109 113 123 201 130 109 114 90 96 111 94 105 133 138 106 80 123 223 296 232 180 168 86 85 124 131 101 143 133 123 95 90 166 170 220
98 96 91 90 98 120 149 148 145 158 115 61 76 60 80 158 137 168 117 98 207 293 250 179 143 96 113 147 125 135 138 125 123 138 149 115 133 143 133 132 124 153 170 167 158 135 167
101 97 91 97 106 118 138 170 160 180 157 100 95 67 57 89 159 128 113 130 201 179 205 217 265 190 166 141 136 109 90 84 65 93 164 188 185 170 166 169 125 137 160 174 212 144 150
98 97 88 100 117 121 129 158 175 185 182 102 116 102 84 98 120 133 127 132 150 174 165 180 170 141 131 133 143 125 113 120 114 107 100 165 162 155 196 174 141 97 220 200 232 96 138
100 98 90 93 108 125 136 145 161 175 168 106 118 105 70 90 135 147 158 159 170 163 156 128 180 140 151 154 134 113 120 119 150 136 100 116 146 149 213 214 140 145 241 246 145 177 186
101 100 90 88 97 117 134 150 169 172 160 94 112 119 91 92 86 113 174 190 144 99 124 105 102 87 103 145 130 122 132 132 159 150 164 155 150 127 157 121 149 114 167 183 218 242 225

GFSGBSN_con_3kmhel_027.txt.gz
Helicity
77 77 77 84 66 43 41 36 33 43 50 60 29 29 33 28 15 7 20 28 27 26 28 42 81 76 38 35 85 46 45 42 54 72 79 65 43 27 29 35 17 -23 -0 54 39 71 92
87 85 76 84 49 39 30 33 33 42 50 45 17 25 16 13 5 13 27 29 31 30 41 73 74 66 23 71 34 15 -63 79 88 80 66 58 57 30 31 16 -31 22 52 88 93 95 93
96 82 72 72 41 34 29 35 35 39 44 28 23 25 16 11 1 13 25 26 24 41 70 72 65 33 39 125 37 79 26 115 122 86 75 83 52 40 -3 10 7 54 96 80 76 108 76
98 86 74 55 38 28 22 34 34 44 28 28 7 14 14 12 8 3 17 7 37 58 70 67 59 20 54 49 35 102 65 74 60 59 47 17 20 35 42 43 71 31 34 -8 -14 18 51
93 86 68 46 32 23 25 29 33 39 18 22 -1 10 7 -3 8 23 18 35 60 70 57 43 30 18 84 89 86 74 32 44 36 5 6 25 28 79 46 56 53 64 -15 -2 -20 14 27
83 81 58 46 26 21 30 25 27 26 19 12 -13 -4 -10 -7 30 36 32 44 53 48 61 53 37 42 53 62 72 71 27 40 46 59 54 67 58 70 63 31 51 23 11 25 -15 36 7
79 71 54 40 13 11 30 22 24 23 16 -5 -20 -10 3 -9 34 17 40 56 68 74 80 88 46 25 65 98 71 82 52 46 56 52 71 125 55 33 48 46 25 24 44 22 22 41 72
79 66 54 34 9 14 31 11 28 27 19 -15 -15 -8 11 27 42 24 44 96 66 52 66 69 67 59 71 61 82 69 44 47 59 83 100 83 67 69 36 36 24 50 -2 62 93 115 80
86 71 55 36 11 23 20 20 29 33 23 2 -4 31 -10 42 12 28 6 113 83 52 88 78 72 57 82 34 69 57 54 49 57 70 63 47 94 44 33 49 47 79 81 96 74 98 91
84 76 70 37 18 24 21 23 43 45 29 24 3 6 -9 -23 59 32 112 111 106 40 46 75 46 58 49 40 67 72 67 64 60 56 45 60 87 59 69 51 32 68 110 125 117 108 101
90 71 76 49 22 29 27 38 61 54 51 24 21 -1 -17 41 74 104 117 97 46 64 41 63 64 59 46 45 58 96 90 74 70 66 69 58 47 61 64 43 56 44 67 78 84 95 135
83 68 81 49 34 48 39 59 72 53 54 25 25 -4 33 133 106 114 93 71 49 62 71 58 53 52 58 66 75 97 97 92 75 128 153 82 41 52 46 69 54 58 81 115 112 89 119
81 83 76 55 51 60 50 78 68 65 45 58 34 47 91 78 118 74 77 62 67 73 61 48 51 47 51 54 66 97 116 140 108 121 138 107 80 62 66 60 58 69 83 81 82 53 53
90 101 74 69 63 68 63 87 73 77 71 88 96 78 138 87 96 74 62 51 98 78 63 52 43 45 35 50 103 158 129 136 147 88 85 65 84 76 75 49 21 43 38 35 15 39 59
105 110 76 80 72 78 71 100 85 82 85 101 95 127 142 107 70 69 14 72 123 82 46 56 61 52 64 84 80 105 115 88 83 88 67 59 61 60 46 45 23 21 46 28 59 51 70
121 102 79 78 80 80 82 112 89 87 81 73 145 139 146 117 68 57 15 133 123 96 49 82 40 42 37 60 97 101 97 98 78 88 60 33 57 55 54 40 53 21 12 1 15 40 50
127 101 85 71 93 76 99 111 90 95 89 102 170 147 153 123 92 23 61 157 131 112 30 52 63 35 38 49 90 109 70 82 83 83 84 62 50 57 42 53 26 28 8 20 22 35 62
135 101 80 84 89 87 107 108 101 107 112 153 172 136 167 133 89 42 59 139 125 107 98 67 43 50 43 66 104 70 45 53 76 64 71 84 42 89 51 64 49 21 21 34 52 43 67
141 93 84 97 91 100 109 113 112 111 118 157 169 150 175 129 43 70 106 127 90 69 62 71 67 69 65 109 63 67 84 75 68 57 50 69 69 93 85 84 68 48 58 75 92 72 59
112 95 98 97 94 104 103 132 127 118 132 151 167 163 210 152 95 36 89 89 75 84 48 82 99 103 115 116 112 49 77 53 62 65 61 76 63 33 11 19 61 66 96 98 114 100 106
112 104 105 97 102 101 110 154 136 121 136 162 176 159 153 116 127 103 107 94 57 73 67 91 107 78 64 69 81 57 53 53 80 86 77 78 37 64 76 87 81 83 99 116 126 129 151
105 107 103 103 111 100 128 143 135 130 136 169 150 151 191 116 143 141 127 86 46 62 55 71 63 83 67 25 15 8 44 48 54 92 86 102 43 84 76 108 108 72 91 103 98 118 103
109 108 97 109 108 115 134 139 138 113 154 150 158 171 143 180 175 160 132 81 30 80 100 78 54 74 91 55 53 75 78 81 57 55 75 79 77 92 62 109 107 65 95 174 158 156 180
104 95 101 116 111 124 137 142 134 95 135 116 136 131 162 167 156 128 135 112 78 83 83 84 98 93 61 70 111 175 239 197 181 160 85 79 114 130 96 134 148 103 134 120 146 151 171
98 99 114 110 115 137 155 159 141 97 77 82 100 100 141 185 157 128 152 147 211 214 161 111 95 68 93 138 110 101 114 105 120 137 139 104 119 143 149 151 149 139 155 194 200 126 158
92 106 117 105 111 148 164 173 181 115 96 67 101 106 102 190 234 183 170 135 159 184 177 134 170 234 146 123 118 89 68 59 69 72 123 176 186 175 177 171 138 94 133 170 221 160 134
88 126 115 102 112 158 178 189 220 187 87 68 104 103 109 150 175 159 150 124 135 171 154 144 141 138 137 135 139 116 105 98 94 89 77 130 145 135 184 171 148 99 185 240 257 100 139
108 124 119 112 107 150 181 194 235 213 153 92 100 107 73 103 173 155 153 128 129 130 130 101 170 132 146 151 134 109 127 106 148 136 100 108 117 121 184 205 160 168 304 212 114 178 120
128 118 121 112 121 150 179 209 227 217 152 101 145 158 128 115 123 151 149 143 121 86 121 145 100 85 101 159 142 136 156 154 169 156 169 163 131 121 128 116 116 67 121 123 167 193 170

GFSGBSN_con_3kmhel_030.txt.gz
Helicity
80 73 72 69 70 75 57 57 51 41 36 36 43 49 57 49 45 39 18 3 17 19 38 37 42 65 33 26 57 25 9 35 76 62 34 25 52 25 -18 -1 46 25 13 8 58 80 104
96 88 79 80 79 74 55 43 42 38 29 28 38 45 53 45 35 19 4 -7 13 29 29 35 43 49 18 60 27 -3 -33 18 34 69 28 49 37 9 6 16 -13 -7 18 52 65 72 83
100 94 88 76 75 77 61 48 31 24 23 21 36 52 57 42 17 7 3 -5 15 43 35 33 33 22 34 73 5 20 70 63 106 113 104 87 32 39 23 21 50 53 59 94 112 91 99
105 103 97 85 81 75 62 51 30 14 20 20 31 56 49 36 18 9 7 2 19 30 48 51 11 18 40 40 45 87 58 75 63 84 106 34 63 30 71 58 78 48 58 40 44 57 65
114 118 105 89 80 69 50 49 26 15 17 18 30 47 29 26 3 -0 10 16 21 35 55 34 10 40 88 80 83 49 45 71 28 21 38 17 22 26 43 69 77 64 51 41 18 42 28
124 117 113 94 81 64 45 39 19 16 21 11 26 28 7 14 -3 -0 16 38 29 46 56 30 44 59 63 75 79 55 36 34 32 47 48 26 39 79 92 46 15 18 22 18 17 2 26
126 118 111 96 81 55 38 28 18 16 17 7 24 5 -0 4 -2 12 41 57 80 74 51 80 41 29 61 123 85 80 45 39 33 56 51 84 73 64 31 16 44 37 36 55 37 24 61
130 118 102 98 82 51 30 20 27 18 5 16 10 -9 -2 12 -6 -2 29 59 64 36 56 73 80 13 60 61 106 68 44 53 52 73 67 108 117 59 56 54 53 69 64 44 68 90 81
142 129 102 97 72 55 30 23 23 19 -0 23 2 -18 -4 5 -4 -5 36 77 41 48 71 64 56 42 44 24 53 80 51 41 65 73 85 40 62 41 47 68 86 85 76 56 46 114 147
142 134 112 98 72 54 31 35 23 11 14 19 1 -12 -0 -2 9 39 70 87 67 50 96 81 44 71 29 46 80 94 72 55 98 51 58 55 74 43 64 55 20 28 52 63 100 108 106
140 130 112 101 82 63 42 42 31 16 27 25 -3 -14 -11 -46 88 73 82 85 40 97 54 54 48 44 51 52 49 101 88 76 60 67 53 77 79 75 61 35 32 41 67 85 93 108 122
143 128 112 92 85 69 64 49 35 27 31 41 10 -19 -19 114 79 106 74 62 79 64 63 51 52 41 56 70 82 92 94 100 86 94 152 84 75 62 43 59 62 52 88 124 111 95 92
83 119 100 84 77 73 73 59 45 35 38 61 8 -10 -6 92 110 74 64 91 78 36 44 51 50 49 69 82 88 106 131 163 103 97 106 113 75 59 66 71 71 86 102 84 84 105 31
280 124 103 74 78 76 80 68 52 44 56 66 31 20 97 109 88 73 90 89 55 49 54 58 62 85 42 60 96 131 118 113 147 92 104 59 66 68 74 70 52 75 74 56 -12 15 37
206 104 111 78 83 83 82 75 67 49 88 65 75 108 126 118 66 73 78 48 66 62 62 53 99 64 60 67 53 110 132 118 124 115 55 62 67 72 72 69 50 42 54 49 60 48 8
202 85 106 88 91 87 83 81 72 66 93 61 110 136 154 135 68 81 49 67 86 69 61 88 73 46 51 59 81 94 121 128 105 105 78 44 65 83 68 57 77 42 36 40 40 6 24
125 103 96 90 99 93 85 79 77 77 83 14 152 168 182 132 104 76 31 84 108 98 66 68 45 50 56 74 74 97 93 89 96 96 93 74 67 60 57 57 49 66 38 45 33 40 52
3 99 99 92 112 95 88 81 76 89 95 140 172 158 193 154 119 69 34 73 131 120 76 78 65 50 49 90 110 100 64 67 83 81 80 80 50 60 61 43 45 33 25 42 57 47 75
70 102 97 99 118 99 93 82 82 101 69 158 188 188 205 135 55 79 69 118 136 126 74 88 77 39 61 96 79 81 65 77 78 67 50 60 66 90 93 75 71 36 63 85 107 92 78
92 82 96 108 100 100 99 83 95 101 53 160 178 160 219 145 81 12 80 99 96 110 76 81 77 67 97 125 136 61 74 72 66 60 79 80 68 45 5 28 65 73 91 100 118 103 99
89 89 93 96 105 107 92 95 115 102 77 149 175 136 158 124 115 37 95 87 86 78 75 89 102 104 71 80 87 68 70 74 82 68 79 70 52 73 78 75 62 54 64 100 119 135 137
90 78 84 95 106 104 88 107 125 122 111 141 121 119 199 137 151 105 118 88 67 88 79 73 72 86 88 35 14 -3 42 36 37 86 86 98 49 74 55 100 104 62 60 90 118 161 128
81 75 82 98 98 92 105 128 139 121 123 138 168 162 136 214 193 157 123 106 77 79 91 75 59 72 76 52 56 71 67 96 69 62 92 97 75 73 34 99 104 28 91 175 199 221 217
69 74 86 89 89 108 116 126 139 110 126 133 136 125 141 154 168 148 141 169 106 69 61 93 95 71 45 62 97 152 206 171 161 154 98 84 108 113 74 116 123 91 114 116 139 160 205
78 86 83 87 109 105 117 131 132 89 121 138 132 108 116 138 164 170 156 181 202 181 133 115 112 66 29 110 99 98 110 100 112 129 140 110 108 126 122 119 129 105 126 144 175 116 190
83 84 87 96 112 119 125 133 111 77 107 108 132 91 82 113 151 169 186 184 165 173 170 130 119 141 99 95 107 82 60 61 82 83 115 148 158 150 159 156 126 70 109 132 188 170 164
72 79 112 103 128 140 143 131 101 81 71 71 104 100 93 126 224 145 145 156 157 195 171 131 147 110 106 113 116 92 74 79 81 78 73 122 135 143 205 184 160 79 137 199 227 83 74
86 111 96 130 140 162 172 142 113 85 66 107 118 107 98 120 224 192 179 147 146 164 158 115 209 123 133 139 117 90 103 80 116 116 95 102 113 114 168 200 139 128 205 152 78 95 55
106 81 135 143 152 187 173 155 124 102 108 100 67 120 124 149 168 194 182 170 127 103 115 132 92 91 100 158 138 137 154 161 167 150 164 147 132 135 133 125 105 25 70 91 130 124 111

GFSGBSN_con_3kmhel_033.txt.gz
Helicity
107 98 95 85 82 79 67 55 62 59 60 57 47 36 22 15 30 52 45 40 22 9 26 28 37 36 23 8 16 22 27 29 70 44 19 20 26 36 -40 -8 5 20 36 -4 19 11 -13
111 111 107 97 93 83 65 62 56 65 59 46 40 31 28 28 40 42 32 20 5 2 24 30 22 13 1 2 13 12 5 5 19 41 -5 6 -8 29 33 29 24 -11 6 16 22 68 49
112 112 108 106 93 88 78 76 61 55 53 45 29 33 39 40 49 30 19 9 6 6 22 25 20 -15 9 37 31 6 62 42 39 74 49 75 44 37 23 25 17 7 49 59 97 51 17
153 115 110 111 100 91 84 80 72 54 44 34 22 38 45 48 44 30 22 14 17 9 15 27 -8 -10 44 53 35 109 96 70 50 59 72 24 57 42 21 53 57 57 60 63 84 43 28
220 130 107 112 112 97 89 75 68 60 43 27 27 45 38 44 26 27 22 30 24 24 15 18 -3 -4 73 80 62 53 29 61 16 21 20 13 32 50 43 30 91 70 19 44 56 80 48
287 110 114 110 113 98 83 78 66 55 44 25 32 49 27 32 12 38 34 42 28 29 17 14 37 39 68 60 75 60 33 31 52 17 20 45 36 39 59 46 21 5 47 53 27 37 74
197 209 129 109 112 103 80 70 61 53 41 30 36 45 18 18 17 45 70 65 57 40 7 23 49 52 81 119 54 56 50 41 44 61 77 85 63 71 35 13 12 34 80 56 49 45 73
231 204 94 101 104 106 72 67 64 48 39 39 35 32 16 10 31 45 73 18 10 34 36 18 80 7 51 66 94 88 40 50 83 70 60 80 80 78 47 36 43 60 50 42 68 70 38
143 179 122 123 120 110 77 63 62 42 42 44 33 12 22 19 46 7 -19 -27 51 44 70 33 34 33 34 27 74 86 50 51 59 68 71 50 56 65 59 72 74 89 55 32 37 69 84
138 128 183 111 119 114 86 63 54 44 53 43 26 9 28 47 -1 -1 -15 53 90 17 86 75 39 57 37 43 75 76 69 47 82 56 67 67 83 66 50 41 25 19 45 45 54 50 41
102 72 114 101 110 112 99 72 55 54 58 46 20 12 39 1 36 15 48 30 13 44 66 45 60 56 44 26 51 106 115 69 53 61 40 58 32 35 32 40 43 1 45 70 72 105 71
101 -93 105 132 110 118 104 75 61 60 59 51 18 12 -3 -111 42 42 53 27 58 85 58 61 86 64 63 81 74 109 103 92 79 87 155 87 80 54 23 50 60 30 73 95 83 79 34
99 -120 95 248 112 120 100 75 68 62 64 55 28 19 -2 49 55 41 57 70 85 43 52 61 86 69 67 75 81 94 107 129 103 121 103 113 84 59 59 56 68 70 81 59 58 81 62
52 -243 69 311 109 128 93 75 68 59 74 69 45 19 42 57 51 88 88 101 48 49 38 62 67 91 37 53 80 100 110 118 136 101 85 32 37 51 53 41 31 62 59 61 -4 5 6
25 -216 4 217 66 119 87 70 66 61 71 70 56 40 46 13 100 117 106 51 61 54 43 46 101 78 77 70 55 90 108 99 109 102 50 55 55 74 74 61 60 41 63 66 60 31 20
36 -49 -54 257 119 110 92 81 64 66 61 56 95 66 65 61 50 111 99 65 70 39 56 77 71 61 51 57 68 92 100 114 101 105 93 41 55 74 65 68 95 47 58 29 50 7 14
-14 -203 -104 141 219 104 86 88 77 68 59 60 137 124 126 119 106 124 55 70 57 65 48 59 59 67 53 61 61 86 83 119 120 121 105 83 73 53 59 46 42 72 53 69 46 29 15
-58 -296 -94 245 179 82 77 88 78 68 98 146 163 177 179 155 172 126 39 54 49 84 59 75 59 61 65 89 80 81 65 94 86 102 81 93 71 64 68 51 48 48 49 44 42 28 64
-135 -282 50 344 107 84 66 78 84 75 120 213 182 216 218 160 137 128 89 93 78 108 90 83 79 71 81 94 93 93 87 84 77 66 68 69 81 76 64 53 68 47 54 66 87 84 76
-139 -132 253 282 105 63 57 75 82 74 77 176 207 202 239 137 121 62 92 117 110 121 94 96 93 85 69 80 91 53 84 79 88 82 101 96 78 38 1 29 48 64 63 95 120 99 108
-181 -36 451 132 64 56 60 79 87 92 76 184 244 175 189 129 123 73 95 100 102 106 91 100 92 63 41 56 102 76 81 83 91 73 93 74 41 62 63 71 63 57 40 89 112 139 133
-185 290 370 63 45 55 78 88 103 123 119 152 191 162 197 154 125 76 129 96 81 94 102 94 64 82 84 41 49 34 69 52 55 94 87 86 47 72 65 88 92 18 14 64 84 121 102
142 277 117 67 50 64 87 100 107 136 164 154 193 160 118 182 180 110 109 100 83 79 108 96 62 104 99 83 90 90 105 133 87 72 102 89 85 83 54 94 96 -24 40 136 180 190 186
295 155 85 59 56 81 98 106 120 104 127 165 162 147 110 125 145 106 103 121 98 91 56 90 98 82 62 53 103 176 222 189 175 159 101 87 118 110 76 94 90 80 107 112 89 91 180
146 98 60 49 79 99 113 110 122 78 105 158 157 102 86 92 125 160 137 168 187 163 128 106 112 88 23 116 117 102 97 83 101 130 135 104 105 104 89 93 92 88 94 109 125 104 101
100 73 59 81 100 106 108 110 111 90 121 161 166 91 75 80 115 132 194 212 208 186 176 133 137 128 108 119 108 58 38 46 58 74 111 138 147 125 123 97 72 78 93 101 105 117 90
62 64 88 95 91 92 92 98 107 99 138 172 149 95 63 84 156 161 146 182 225 223 184 164 147 107 108 119 108 75 57 72 49 57 71 117 134 134 169 129 104 58 111 97 156 99 83
80 94 89 86 88 80 80 98 98 107 129 162 134 109 64 97 173 179 162 148 196 202 164 139 207 134 133 126 99 77 81 75 89 87 66 80 96 91 132 145 87 75 106 105 86 62 77
98 84 86 80 85 87 92 88 84 59 97 109 86 82 114 121 141 186 133 148 130 130 152 152 102 105 101 145 116 103 122 119 120 93 107 103 99 110 100 109 86 32 57 90 109 105 125